Location: Battersea Observatory
(44.4318°N, 76.3841°W)
Time: 21:02:52
(UTC-04:00)

Tiros 1 despin weight - Pass Details

Date: 31 January 2022
Orbit: 592 x 639 km, 48.2° (Epoch: 25 May)

Event Time Altitude Azimuth Distance (km) Brightness Sun altitude
Rises 16:02:56 0° 260° (W) 2,855 ? 10.1°
Reaches altitude 10° 16:05:13 10° 263° (W) 1,960 ? 9.7°
Maximum altitude 16:09:42 65° 346° (NNW) 681 ? 9.1°
Drops below altitude 10° 16:14:16 10° 69° (ENE) 1,997 ? 8.4°
Sets 16:16:38 0° 72° (ENE) 2,913 ? 8.1°
